Mount Pleasant, IA

9:11 AM CST on February 24, 2018 (GMT -0600)
Mount Pleasant Municipal

Weather History for KMPZ - April, 2014

Change the Weather History Date:

Thursday, April 24, 2014

  Actual Average Record
Temperature  
Mean Temperature 56 °F -  
Max Temperature 62 °F 65 °F 85 °F (1954)
Min Temperature 49 °F 41 °F 20 °F (1956)
Degree Days  
Heating Degree Days 10    
Growing Degree Days 6 (Base 50)    
Moisture  
Dew Point 42 °F    
Average Humidity 67    
Maximum Humidity 97    
Minimum Humidity 36    
Precipitation  
Precipitation 0.02 in - - ()
Sea Level Pressure  
Sea Level Pressure 29.74 in    
Wind  
Wind Speed 13 mph (SE)    
Max Wind Speed 29 mph    
Max Gust Speed 38 mph    
Visibility 8 miles    
Events Rain    
Averages and records for this station are not official NWS values.
T = Trace of Precipitation, MM = Missing Value Source: NWS Daily Summary

Daily Weather History Graph

Daily Weather History Graph

Search for Another Location

Airport or City:

Trip Planner

Search our weather history database for the weather conditions in past years. The results will help you decide how hot, cold, wet, or windy it might be!

Date:

Astronomy

Apr. 24, 2014 Rise Set
Actual Time 6:13 AM CDT 7:55 PM CDT
Civil Twilight 5:44 AM CDT 8:24 PM CDT
Nautical Twilight 5:09 AM CDT 9:00 PM CDT
Astronomical Twilight 4:31 AM CDT 9:38 PM CDT
Moon 3:27 AM CDT 3:09 PM CDT
Length of Visible Light 14h 40m
Length of Day
13h 41m
Waning Crescent, 24% of the Moon is Illuminated
Apr 24
Waning Crescent
Apr 29
New
May 6
First Quarter
May 14
Full
May 21
Last Quarter

Hourly Weather History & Observations

Time (CDT) Temp. Dew Point Humidity Pressure Visibility Wind Dir Wind Speed Gust Speed Precip Events Conditions
12:15 AM 51.3 °F 32.2 °F 48% 29.89 in 10.0 mi ESE 10.4 mph - N/A   Clear
12:35 AM 51.3 °F 32.2 °F 48% 29.89 in 10.0 mi ESE 11.5 mph 17.3 mph N/A   Clear
12:55 AM 51.4 °F 32.0 °F 47% 29.89 in 10.0 mi ESE 9.2 mph - N/A   Clear
1:15 AM 51.6 °F 31.8 °F 47% 29.88 in 10.0 mi ESE 10.4 mph - N/A   Clear
1:35 AM 50.5 °F 32.2 °F 49% 29.88 in 10.0 mi ESE 9.2 mph - N/A   Clear
1:55 AM 50.2 °F 33.3 °F 52% 29.88 in 10.0 mi East 8.1 mph - N/A   Clear
2:15 AM 50.0 °F 32.5 °F 51% 29.88 in 10.0 mi ESE 9.2 mph - N/A   Clear
2:35 AM 49.6 °F 32.9 °F 53% 29.87 in 10.0 mi ESE 10.4 mph - N/A   Clear
2:55 AM 49.6 °F 33.4 °F 54% 29.85 in 10.0 mi ESE 11.5 mph - N/A   Clear
3:15 AM 50.0 °F 33.3 °F 53% 29.84 in 10.0 mi ESE 12.7 mph - N/A   Clear
3:35 AM 50.2 °F 33.1 °F 52% 29.84 in 10.0 mi ESE 13.8 mph 17.3 mph N/A   Clear
3:55 AM 50.4 °F 32.9 °F 51% 29.83 in 10.0 mi ESE 16.1 mph - N/A   Clear
4:15 AM 50.2 °F 32.9 °F 52% 29.81 in 10.0 mi ESE 17.3 mph - N/A   Clear
4:35 AM 51.1 °F 32.7 °F 50% 29.81 in 10.0 mi ESE 19.6 mph 25.3 mph N/A   Mostly Cloudy
4:55 AM 51.8 °F 32.2 °F 47% 29.81 in 10.0 mi SE 16.1 mph 25.3 mph N/A   Mostly Cloudy
5:15 AM 51.8 °F 32.0 °F 47% 29.79 in 10.0 mi ESE 19.6 mph 24.2 mph N/A   Scattered Clouds
5:35 AM 52.2 °F 32.0 °F 46% 29.79 in 10.0 mi SE 19.6 mph 25.3 mph N/A   Clear
5:55 AM 52.7 °F 32.0 °F 45% 29.80 in 10.0 mi SE 16.1 mph 24.2 mph N/A   Clear
6:15 AM 52.2 °F 32.2 °F 47% 29.81 in 10.0 mi SE 11.5 mph 17.3 mph N/A   Clear
6:35 AM 51.1 °F 32.5 °F 49% 29.80 in 10.0 mi SE 12.7 mph - N/A   Clear
6:55 AM 51.3 °F 32.5 °F 49% 29.80 in 10.0 mi SE 17.3 mph - N/A   Clear
7:15 AM 52.2 °F 33.4 °F 49% 29.80 in 10.0 mi SE 15.0 mph - N/A   Mostly Cloudy
7:35 AM 52.9 °F 33.6 °F 48% 29.79 in 10.0 mi SE 15.0 mph - N/A   Mostly Cloudy
7:55 AM 54.1 °F 33.6 °F 46% 29.78 in 10.0 mi SE 16.1 mph - N/A   Mostly Cloudy
8:15 AM 55.6 °F 33.6 °F 44% 29.77 in 10.0 mi SE 17.3 mph 24.2 mph N/A   Scattered Clouds
8:35 AM 57.6 °F 33.4 °F 40% 29.76 in 10.0 mi SE 20.7 mph 27.6 mph N/A   Clear
8:55 AM 58.3 °F 33.4 °F 39% 29.75 in 10.0 mi SSE 28.8 mph 33.4 mph N/A   Scattered Clouds
9:15 AM 58.5 °F 33.3 °F 39% 29.75 in 10.0 mi SSE 26.5 mph 38.0 mph N/A   Clear
9:35 AM 59.0 °F 33.8 °F 39% 29.75 in 10.0 mi SSE 24.2 mph 31.1 mph N/A   Clear
9:55 AM 59.4 °F 33.6 °F 38% 29.74 in 10.0 mi SSE 23.0 mph 32.2 mph N/A   Clear
10:15 AM 59.9 °F 34.5 °F 39% 29.74 in 10.0 mi SSE 20.7 mph 28.8 mph N/A   Clear
10:35 AM 61.2 °F 34.3 °F 37% 29.73 in 10.0 mi South 21.9 mph 29.9 mph N/A   Scattered Clouds
10:55 AM 61.9 °F 34.5 °F 36% 29.73 in 10.0 mi SSE 18.4 mph 27.6 mph N/A   Mostly Cloudy
11:15 AM 62.1 °F 35.1 °F 37% 29.74 in 10.0 mi South 16.1 mph 24.2 mph N/A   Overcast
11:35 AM 61.7 °F 35.6 °F 38% 29.75 in 10.0 mi South 13.8 mph 23.0 mph N/A Rain Light Rain
11:55 AM 58.3 °F 42.1 °F 55% 29.75 in 10.0 mi South 9.2 mph - N/A Rain Light Rain
12:15 PM 56.3 °F 44.4 °F 64% 29.76 in 7.0 mi South 15.0 mph 20.7 mph N/A Rain Rain
12:35 PM 53.6 °F 46.9 °F 78% 29.76 in 3.0 mi SSW 17.3 mph - N/A Rain Rain
12:55 PM 52.9 °F 48.6 °F 85% 29.75 in 4.0 mi South 13.8 mph - N/A Rain Rain
1:15 PM 52.7 °F 50.0 °F 91% 29.73 in 5.0 mi SSE 12.7 mph - N/A Rain Light Rain
1:35 PM 53.8 °F 51.1 °F 91% 29.72 in 7.0 mi SSE 9.2 mph - N/A Rain Light Rain
1:55 PM 54.9 °F 50.0 °F 84% 29.67 in 7.0 mi SE 23.0 mph 27.6 mph N/A Rain Light Rain
2:15 PM 55.9 °F 48.9 °F 77% 29.64 in 10.0 mi SE 20.7 mph - N/A Rain Light Rain
2:35 PM 56.7 °F 47.7 °F 72% 29.62 in 10.0 mi SE 20.7 mph 28.8 mph 0.01 in   Scattered Clouds
2:55 PM 57.4 °F 47.7 °F 70% 29.61 in 10.0 mi SSE 20.7 mph 26.5 mph 0.01 in   Clear
3:15 PM 58.5 °F 47.8 °F 68% 29.61 in 10.0 mi SSW 6.9 mph - N/A   Clear
3:35 PM 58.5 °F 47.1 °F 66% 29.64 in 10.0 mi South 4.6 mph - N/A   Scattered Clouds
3:55 PM 57.2 °F 48.7 °F 73% 29.68 in 10.0 mi SW 9.2 mph - N/A Rain Rain
4:15 PM 54.9 °F 50.4 °F 85% 29.68 in 4.0 mi West 8.1 mph - N/A Rain Rain
4:35 PM 54.0 °F 51.3 °F 91% 29.65 in 3.0 mi NW 3.5 mph - N/A Rain Heavy Rain
4:55 PM 54.0 °F 52.0 °F 93% 29.64 in 5.0 mi Calm Calm - N/A Rain Light Rain
5:15 PM 54.1 °F 52.0 °F 92% 29.64 in 7.0 mi Calm Calm - N/A Rain Light Rain
5:35 PM 54.1 °F 52.0 °F 92% 29.65 in 7.0 mi Calm Calm - N/A Rain Rain
5:55 PM 54.0 °F 52.7 °F 95% 29.66 in 3.0 mi West 6.9 mph - N/A Rain Rain
6:15 PM 53.8 °F 52.7 °F 96% 29.65 in 4.0 mi WNW 9.2 mph - N/A Rain Light Rain
6:35 PM 53.8 °F 52.7 °F 96% 29.65 in 4.0 mi Calm Calm - N/A Rain Light Rain
6:55 PM 53.6 °F 52.7 °F 97% 29.64 in 5.0 mi North 3.5 mph - N/A Rain Rain
7:15 PM 53.6 °F 52.7 °F 97% 29.64 in 4.0 mi North 5.8 mph - 0.01 in Rain Rain
7:35 PM 53.4 °F 52.5 °F 97% 29.63 in 5.0 mi North 5.8 mph - 0.01 in   Overcast
7:55 PM 53.2 °F 52.3 °F 97% 29.62 in 4.0 mi North 10.4 mph - 0.01 in   Overcast
8:15 PM 53.1 °F 52.3 °F 97% 29.65 in 4.0 mi NNW 8.1 mph - N/A   Overcast
8:35 PM 53.1 °F 52.3 °F 97% 29.65 in 5.0 mi NW 6.9 mph - N/A   Overcast
8:55 PM 53.1 °F 52.2 °F 97% 29.65 in 7.0 mi NW 8.1 mph - N/A   Overcast
9:15 PM 53.2 °F 52.0 °F 95% 29.67 in 7.0 mi NW 11.5 mph 18.4 mph N/A Rain Light Rain
9:35 PM 53.1 °F 51.3 °F 94% 29.67 in 10.0 mi NNW 17.3 mph 21.9 mph N/A   Overcast
9:55 PM 52.3 °F 50.0 °F 92% 29.68 in 10.0 mi NNW 17.3 mph 20.7 mph N/A   Overcast
10:15 PM 51.8 °F 49.1 °F 90% 29.70 in 10.0 mi NNW 13.8 mph 21.9 mph N/A   Overcast
10:35 PM 51.6 °F 48.7 °F 90% 29.71 in 10.0 mi NW 11.5 mph 17.3 mph N/A   Mostly Cloudy
10:55 PM 51.3 °F 48.2 °F 89% 29.71 in 10.0 mi NW 11.5 mph 17.3 mph N/A   Overcast
11:15 PM 50.9 °F 47.7 °F 89% 29.72 in 10.0 mi NW 10.4 mph - N/A   Overcast
11:35 PM 50.4 °F 46.9 °F 88% 29.72 in 10.0 mi NW 10.4 mph 16.1 mph N/A   Scattered Clouds